TimeEDT,TemperatureF,Dew PointF,Humidity,Sea Level PressureIn,VisibilityMPH,Wind Direction,Wind SpeedMPH,Gust SpeedMPH,PrecipitationIn,Events,Conditions,WindDirDegrees,DateUTC
12:53 AM,82.9,75.0,77,30.00,10.0,ENE,6.9,-,N/A,,Clear,70,2012-09-03 04:53:00
1:53 AM,82.0,75.9,82,30.00,10.0,ENE,3.5,-,N/A,,Clear,70,2012-09-03 05:53:00
2:53 AM,82.9,75.9,79,29.98,10.0,ENE,3.5,-,N/A,,Partly Cloudy,70,2012-09-03 06:53:00
3:53 AM,82.9,75.9,79,29.98,10.0,East,5.8,-,N/A,,Overcast,90,2012-09-03 07:53:00
4:53 AM,82.0,75.0,79,29.97,10.0,East,3.5,-,N/A,,Scattered Clouds,90,2012-09-03 08:53:00
5:53 AM,82.0,75.0,79,29.98,10.0,Calm,Calm,-,N/A,,Partly Cloudy,0,2012-09-03 09:53:00
6:53 AM,82.0,75.0,79,30.00,10.0,Calm,Calm,-,N/A,,Mostly Cloudy,0,2012-09-03 10:53:00
7:18 AM,82.4,75.2,79,30.01,10.0,ENE,3.5,-,N/A,,Mostly Cloudy,70,2012-09-03 11:18:00
7:30 AM,82.4,75.2,79,30.01,10.0,Calm,Calm,-,N/A,,Scattered Clouds,0,2012-09-03 11:30:00
7:53 AM,82.0,75.0,79,30.01,10.0,Calm,Calm,-,N/A,,Clear,0,2012-09-03 11:53:00
8:53 AM,86.0,75.0,70,30.02,10.0,Variable,3.5,-,N/A,,Clear,0,2012-09-03 12:53:00
9:53 AM,87.1,73.9,65,30.03,10.0,Calm,Calm,-,N/A,,Clear,0,2012-09-03 13:53:00
10:53 AM,89.1,73.9,61,30.05,10.0,Variable,4.6,-,N/A,,Clear,0,2012-09-03 14:53:00
11:53 AM,88.0,73.9,63,30.05,10.0,SSE,5.8,-,N/A,,Clear,160,2012-09-03 15:53:00
12:53 PM,90.0,75.9,63,30.04,10.0,Variable,4.6,-,N/A,,Clear,0,2012-09-03 16:53:00
1:53 PM,89.1,75.9,65,30.03,10.0,SSE,5.8,-,N/A,,Scattered Clouds,150,2012-09-03 17:53:00
2:53 PM,89.1,73.9,61,30.01,10.0,SSE,5.8,-,N/A,,Clear,160,2012-09-03 18:53:00
3:53 PM,87.1,73.9,65,30.00,10.0,South,4.6,-,N/A,,Clear,170,2012-09-03 19:53:00
4:53 PM,86.0,73.9,67,29.99,10.0,Variable,3.5,-,N/A,,Clear,0,2012-09-03 20:53:00
5:53 PM,87.1,73.9,65,29.99,10.0,Variable,4.6,-,N/A,,Clear,0,2012-09-03 21:53:00
6:53 PM,84.9,73.0,67,29.98,10.0,Variable,4.6,-,N/A,,Clear,0,2012-09-03 22:53:00
7:33 PM,84.2,73.4,70,29.97,10.0,SSE,4.6,-,N/A,,Partly Cloudy,160,2012-09-03 23:33:00
7:53 PM,84.0,73.9,72,29.97,10.0,SE,4.6,-,N/A,,Clear,140,2012-09-03 23:53:00
8:53 PM,82.9,75.0,77,30.00,10.0,SE,3.5,-,N/A,,Clear,130,2012-09-04 00:53:00
10:53 PM,82.9,75.9,79,30.02,10.0,SSE,4.6,-,N/A,,Scattered Clouds,150,2012-09-04 02:53:00
11:53 PM,82.9,75.9,79,30.02,10.0,ESE,5.8,-,N/A,,Partly Cloudy,120,2012-09-04 03:53:00